Location: Zagreb
(45.8000°N, 16.0000°E)
Time: 07:59:35
(UTC+02:00)

A-11 Canister half - Pass Details

Date: 23 July 2024
Orbit: 1524 x 1683 km, 47.3° (Epoch: 27 April)

Event Time Altitude Azimuth Distance (km) Brightness Sun altitude
Exits shadow 04:27:17 - 207° (SSW) 4,124 10.7 -9.5°
Reaches altitude 10° 04:27:58 10° 205° (SSW) 3,928 10.6 -9.4°
Maximum altitude 04:37:10 42° 139° (SE) 2,214 9.9 -8.2°
Drops below altitude 10° 04:46:10 10° 73° (ENE) 3,850 12.4 -7.0°
Sets 04:49:26 0° 67° (ENE) 4,815 13.5 -6.6°
